Regional Weather Roundup
Issued by NWS

Home | Current Version | Previous Version | Graphics & Text | Print | Product List | Glossary On
Versions: 1 2 3 4 5 6 7 8 9 10 11 12 13 14 15 16 17 18 19 20 21 22 23 24 25 26 27 28 29 30 31 32 33 34 35 36 37 38 39 40 41 42 43 44 45 46 47 48 49 50
000
ASUS43 KMPX 050210
RWRMN
WEATHER ROUNDUP FOR MINNESOTA
NATIONAL WEATHER SERVICE TWIN CITIES/CHANHASSEN MN
900 PM CDT FRI SEP 04 2015


NOTE: "FAIR" INDICATES FEW OR NO CLOUDS BELOW 12,000 FEET WITH NO
SIGNIFICANT WEATHER AND/OR OBSTRUCTIONS TO VISIBILITY. N/A MEANS
CURRENT SKY AND/OR WEATHER CONDITIONS ARE NOT AVAILABLE.

MNZ060>063-068>070-050300-
   Twin Cities Metro

CITY           SKY/WX    TMP DP  RH WIND       PRES   REMARKS
TWIN CITIES    MOCLDY    82  73  74 SE10      29.92R
ST PAUL        PTCLDY    81  73  76 SE8       29.92R
CRYSTAL        MOCLDY    84  72  67 S9        29.90R
BLAINE         MOCLDY    84  73  70 SE10      29.91S HX  91
LAKEVILLE      MOCLDY    77  73  88 SE3       29.94R
EDEN PRAIRIE   CLOUDY    82  74  76 SE10      29.90S
SOUTH ST PAUL  MOCLDY    81  72  72 SE5       29.92S
LAKE ELMO      MOCLDY    79  73  83 SE7       29.94S
$$
MNZ001>005-007-008-013>017-022>024-027-028-050300-
   Northwest Minnesota

CITY           SKY/WX    TMP DP  RH WIND       PRES   REMARKS
BEMIDJI        CLOUDY    71  69  94 SE17      29.90R THUNDER
HALLOCK        MOCLDY    68  66  94 CALM      29.85R
ROSEAU         MOCLDY    72  64  78 S7        29.84S
WARROAD        CLOUDY    70  64  83 SW3       29.85R
THIEF RVR FALL MOCLDY    72  70  94 W6        29.85R
CROOKSTON      MOCLDY    72  70  94 CALM      29.84R
FOSSTON        CLOUDY    72  70  94 SE5       29.87S
DETROIT LAKES  MOCLDY    77  72  83 SE6       29.88S
MOORHEAD       MOCLDY    75  72  88 E3        29.83R
PARK RAPIDS    MOCLDY    73  69  87 N5        29.90R
MAHNOMEN       MOCLDY    74  73  95 CALM      29.86R
$$
MNZ006-009>011-018-025>026-050300-
   North Central Minnesota

CITY           SKY/WX    TMP DP  RH WIND       PRES   REMARKS
BAUDETTE       CLOUDY    73  71  93 SE6       29.85S
FLAG ISLAND    CLOUDY    70  66  88 S9        29.82S
INTL FALLS     TSTM      75  69  81 SW9       29.92R
WASKISH        LGT RAIN  75  72  88 E3        29.87S
BIG FORK       CLOUDY    73  70  88 CALM      29.93S THUNDER
LONGVILLE      LGT RAIN  77  72  83 SE3       29.91R
GRAND RAPIDS     N/A     73  66  78 SE9G16    29.93S
CRANE LAKE     MOCLDY    72  64  78 SE2       29.96R
ORR            MOCLDY    73  63  68 SE5       29.92S
COOK           MOCLDY    72  64  78 S3        29.97R
WALKER         TSTM      71  70  96 W13G18    29.91R
$$
MNZ012-019>021-037-050300-
   Northeast Minnesota

CITY           SKY/WX    TMP DP  RH WIND       PRES   REMARKS
DULUTH         PTCLDY    64  59  83 E9        29.98R
ELY            PTCLDY    70  57  64 S6        29.98R
HIBBING        CLOUDY    72  65  78 SE9       29.96R
EVELETH        PTCLDY    70  63  78 SE3       29.98S
DULUTH HARBOR  CLOUDY    61  57  88 NE7       29.98S THUNDER
TWO HARBORS    CLEAR     70  61  73 NE6       29.97R
SILVER BAY     CLOUDY    68  57  68 N3        29.98R
GRAND MARAIS     N/A     70  54  56 NE10      30.00S
G MARAIS ARPRT PTCLDY    64  50  59 E8        30.06S
$$
MNZ029>031-032-039>041-046>048-054>057-064-050300-
   West Central Minnesota

CITY           SKY/WX    TMP DP  RH WIND       PRES   REMARKS
FERGUS FALLS   PTCLDY    77  70  78 SE8       29.83S
WHEATON        CLEAR     72  66  83 SE8       29.85R
MORRIS         PTCLDY    75  70  83 SE7       29.85R
ALEXANDRIA     CLOUDY    76  70  82 S8        29.90S
ELBOW LAKE     MOCLDY    75  70  85 SE10      29.85F
WADENA         CLOUDY    75  70  83 S5        29.88R
GLENWOOD       MOCLDY    75  70  83 SE7       29.90S
APPLETON       CLEAR     75  68  78 S6        29.86R
BENSON         CLOUDY    75  68  78 SE8       29.85F
ORTONVILLE     CLEAR     73  66  78 SE7       29.84S
MADISON        CLEAR     72  68  88 SE6       29.85S
WILLMAR        MOCLDY    75  70  83 SE8       29.89F
$$
MNZ033>034-036-042>043-049>051-058-059-050300-
   Central Minnesota

CITY           SKY/WX    TMP DP  RH WIND       PRES   REMARKS
ST CLOUD       MOCLDY    77  74  90 SE7       29.90R
SAUK CENTRE    CLOUDY    76  73  90 S6        29.89S
PAYNESVILLE    CLOUDY    77  70  79 S5        29.91R
AITKIN         PTCLDY    79  72  78 SE8       29.89F
PINE RIVER     TSTM      75  73  94 SE8       29.93R
BRAINERD       MOCLDY    76  73  91 SE6       29.90R
STAPLES        CLOUDY    75  73  94 E3        29.89R
LONG PRAIRIE   CLOUDY    73  72  94 SE5       29.90R
LITTLE FALLS   MOCLDY    77  70  78 SE5       29.89S
LITCHFIELD     CLOUDY    79  73  83 S5        29.91R
BUFFALO        CLOUDY    80  72  75 SE5       29.91S
MAPLE LAKE     CLOUDY    80  74  84 S3        29.91S
$$
MNZ037-044-045-052-053-050300-
   East Central Minnesota

CITY           SKY/WX    TMP DP  RH WIND       PRES   REMARKS
PRINCETON      PTCLDY    81  73  78 CALM      29.91S
MORA           PTCLDY    75  70  83 SE5       29.94R
CAMBRIDGE      CLEAR     81  70  69 SE7       29.90S
RUSH CITY      PTCLDY    77  72  83 SE5       29.93S
MOOSE LAKE     MOCLDY    64  61  88 NE5       29.93S
HINCKLEY       CLOUDY    77  72  83 E5        29.94R
CLOQUET        PTCLDY    63  59  88 E3        29.98R
MCGREGOR       CLOUDY    72  66  83 E6        29.93S
$$
MNZ071>073-080-081-089-090-097-098-050300-
   Southwest Minnesota

CITY           SKY/WX    TMP DP  RH WIND       PRES   REMARKS
MONTEVIDEO     PTCLDY    75  70  83 S9        29.88R
GRANITE FALLS  MOCLDY    75  70  84 SE9       29.88S
CANBY          CLEAR     76  67  73 S10       29.87S
MARSHALL       PTCLDY    75  66  73 S13       29.89R
REDWOOD FALLS  MOCLDY    76  70  82 S13       29.89R
OLIVIA         CLOUDY    72  64  78 SE13      29.89R
PIPESTONE      PTCLDY    75  72  88 SE10      29.90R
WINDOM         PTCLDY    75  72  88 SE6       29.93R
WORTHINGTON    PTCLDY    75  70  83 SE8       29.92R
JACKSON        PTCLDY    77  73  88 SE8       29.95R
TRACY          PTCLDY    75  72  88 S7        29.90R
SLAYTON        CLEAR     73  73  97 SE7       29.92S
$$
MNZ065>067-074>077-082>085-091>093-050300-
   South Central Minnesota

CITY           SKY/WX    TMP DP  RH WIND       PRES   REMARKS
MANKATO        CLOUDY    75  70  83 S9        29.94S
NEW ULM        CLOUDY    75  72  88 SE5       29.92R
ST JAMES       CLOUDY    77  73  88 SE8       29.93S
FAIRMONT       CLOUDY    77  68  73 SE10      29.94R
GLENCOE        RAIN      79  73  82 S9G18     29.92R
FARIBAULT      RAIN      79  73  83 S7        29.96R
OWATONNA       CLOUDY    81  72  74 S7        29.97R
WASECA         LGT RAIN  73  72  94 S7        29.97S
ALBERT LEA     CLOUDY    79  72  78 S3        29.97R
$$
MNZ078>079-086>088-094>096-050300-
   Southeast Minnesota

CITY           SKY/WX    TMP DP  RH WIND       PRES   REMARKS
ROCHESTER      PTCLDY    76  72  87 SE8       29.99R
RED WING       PTCLDY    81  72  74 SE7       29.93S
STANTON        PTCLDY    81  72  74 SE7       29.93R
DODGE CENTER   PTCLDY    75  72  88 CALM      29.98R
WINONA         CLEAR     77  70  78 CALM      29.97S
AUSTIN         CLOUDY    79  73  83 S3        29.98R
PRESTON        PTCLDY    76  70  81 SE3       30.01R
$$
ABBREVIATIONS USED IN REMARKS
   TC - TEMPERATURES IN CELSIUS
  WCI - WIND CHILL INDEX
   HX - HEAT INDEX
  VSB - VISIBILITY
$$


USA.gov is the U.S. government's official web portal to all federal, state and local government web resources and services.